Location: Horowhenua
(40.7500°S, 175.3333°E)
Time: 16:13:18
(UTC+00:00)

SL-24 DEB - Pass Details

Date: 22 September 2023
Orbit: 654 x 688 km, 92.0° (Epoch: 01 December)

Event Time Altitude Azimuth Distance (km) Brightness Sun altitude
Rises 15:32:41 0° 169° (S) 3,020 8.1 -29.1°
Reaches altitude 10° 15:35:01 10° 163° (SSE) 2,101 7.3 -28.7°
Maximum altitude 15:39:28 46° 89° (E) 892 5.1 -28.0°
Enters shadow 15:40:29 39° 52° (NE) 992 5.2 -27.8°
